EW7556 Weather Reports


Display with metric or nautical units.
time (UTC)temp
F
wind
direction
speed
MPH
gust
MPH
rain 1hr
in
rain 24hr
in
rain mn
in
humidity
%
barometer
mb
20220518041557 49 216 0.0 3.0 0.00 0.00 0.00 84 1022.4
20220518040115 49 236 0.0 3.0 0.00 0.00 0.00 84 1022.3
20220518034554 49 204 1.0 5.0 0.00 0.00 0.00 83 1022.5
20220518033004 49 231 0.0 3.0 0.00 0.00 0.00 81 1023.0
20220518031512 50 226 0.0 4.0 0.00 0.00 0.00 79 1023.1
20220518030116 50 259 0.0 5.0 0.00 0.00 0.00 80 1023.3
20220518024605 50 246 1.0 6.0 0.00 0.00 0.00 80 1023.6
20220518023009 51 243 2.0 4.0 0.00 0.00 0.00 78 1023.8
20220518021513 52 221 1.0 4.0 0.00 0.00 0.00 76 1023.8
20220518020210 52 254 1.0 5.0 0.00 0.00 0.00 74 1023.9
20220518014511 53 253 1.0 4.0 0.00 0.00 0.00 72 1024.0
20220518013021 54 262 1.0 4.0 0.00 0.00 0.00 69 1024.0
20220518011519 56 266 2.0 5.0 0.00 0.00 0.00 66 1024.1
20220518010006 56 153 0.0 3.0 0.00 0.00 0.00 67 1024.5
20220518004509 55 283 0.0 3.0 0.00 0.00 0.00 67 1024.7
20220518003019 55 233 1.0 5.0 0.00 0.00 0.00 71 1025.0
20220518001518 55 217 2.0 5.0 0.00 0.00 0.00 72 1025.2
20220518000126 56 246 2.0 7.0 0.00 0.00 0.00 72 1025.3
20220517234517 55 245 2.0 5.0 0.00 0.00 0.00 74 1025.3
20220517233021 54 250 0.0 6.0 0.00 0.00 0.00 75 1025.5
20220517231524 53 223 2.0 6.0 0.00 0.00 0.00 78 1025.6
20220517230020 52 293 2.0 6.0 0.00 0.00 0.00 78 1025.8
20220517224530 53 252 2.0 6.0 0.00 0.00 0.00 78 1025.8
20220517223035 53 278 2.0 7.0 0.00 0.00 0.00 78 1025.9
20220517221640 53 237 3.0 9.0 0.00 0.00 0.00 78 1025.8
20220517220028 53 241 2.0 12.0 0.00 0.00 0.00 77 1025.8
20220517214514 56 250 3.0 8.0 0.00 0.00 0.00 72 1025.7
20220517213018 56 241 2.0 5.0 0.00 0.00 0.00 63 1025.8
20220517211517 55 252 1.0 4.0 0.00 0.00 0.00 66 1025.8
20220517210016 54 23 0.0 3.0 0.00 0.00 0.00 67 1025.9
20220517204537 54 238 0.0 4.0 0.00 0.00 0.00 73 1025.8
20220517203034 54 10 1.0 6.0 0.00 0.00 0.00 74 1025.9
20220517201533 54 314 1.0 4.0 0.00 0.00 0.00 75 1025.7
20220517200038 55 10 2.0 5.0 0.00 0.00 0.00 75 1025.8
20220517194549 54 356 2.0 6.0 0.00 0.00 0.00 74 1025.7
20220517193037 54 40 2.0 6.0 0.00 0.00 0.00 76 1025.8
20220517191538 54 346 1.0 6.0 0.00 0.00 0.00 78 1025.8
20220517190042 53 338 3.0 6.0 0.00 0.00 0.00 77 1025.7
20220517184524 53 336 3.0 9.0 0.00 0.00 0.00 77 1025.6
20220517183028 53 30 4.0 8.0 0.00 0.00 0.00 77 1025.6
20220517181531 53 32 2.0 7.0 0.00 0.00 0.00 78 1025.6
20220517180048 54 23 3.0 5.0 0.00 0.00 0.00 74 1025.6
20220517174539 53 334 1.0 6.0 0.00 0.00 0.00 77 1025.6
20220517173022 53 358 1.0 7.0 0.00 0.00 0.00 77 1025.5
20220517171526 53 39 1.0 5.0 0.00 0.00 0.00 77 1025.3
20220517170012 52 17 2.0 6.0 0.00 0.00 0.00 77 1025.5